Location: Martz Observatory
(42.0083°N, 79.0667°W)
Time: 18:32:29
(UTC-04:00)

Meteor 1-23 Rocket - Visible Passes

Search period start: 28 July 2014 00:00
Search period end: 07 August 2014 00:00
Orbit: 838 x 888 km, 81.3° (Epoch: 27 July)

Date Brightness Start Highest point End Pass type
(mag) Time Alt. Az. Time Alt. Az. Time Alt. Az.
28 Jul 6.3 00:59:51 10° NW 01:02:50 15° W 01:04:00 14° W visible
28 Jul 4.2 23:06:28 10° N 23:12:08 72° E 23:13:41 49° SSE visible
29 Jul 6.4 00:51:35 10° NW 00:54:37 15° W 00:55:58 14° W visible
29 Jul 4.2 22:58:15 10° N 23:03:55 72° E 23:05:40 45° SSE visible
30 Jul 6.4 00:43:20 10° NW 00:46:24 15° W 00:47:57 14° WSW visible
30 Jul 4.2 22:50:01 10° N 22:55:42 71° E 22:57:39 42° SSE visible
31 Jul 6.4 00:35:04 10° NW 00:38:11 15° W 00:39:56 13° WSW visible
31 Jul 4.2 22:41:48 10° N 22:47:28 70° E 22:49:40 39° SSE visible
01 Aug 6.4 00:26:49 10° NW 00:29:59 15° W 00:31:57 13° WSW visible
01 Aug 4.2 22:33:34 10° N 22:39:15 70° E 22:41:42 35° SSE visible
02 Aug 6.4 00:18:33 10° NW 00:21:46 16° W 00:24:00 13° WSW visible
02 Aug 4.2 22:25:21 10° N 22:31:02 69° E 22:33:46 32° SSE visible
03 Aug 6.5 00:10:18 10° NW 00:13:33 16° W 00:16:03 12° WSW visible
03 Aug 4.3 22:17:07 10° N 22:22:49 69° E 22:25:51 29° SSE visible
04 Aug 6.5 00:02:02 10° NW 00:05:20 16° W 00:08:08 11° WSW visible
04 Aug 4.3 22:08:54 10° N 22:14:35 68° ENE 22:17:58 26° SSE visible
04 Aug 6.5 23:53:47 10° NW 23:57:07 16° W 00:00:15 11° WSW visible
05 Aug 4.3 22:00:40 10° N 22:06:22 67° ENE 22:10:06 22° SSE visible
05 Aug 6.6 23:45:31 10° NW 23:48:54 16° W 23:52:18 10° WSW visible
06 Aug 4.3 21:52:27 10° N 21:58:09 67° ENE 22:02:16 20° SSE visible
06 Aug 6.6 23:37:16 10° NW 23:40:42 17° W 23:44:08 10° WSW visible
